Location: Capannuccia
(43.7000°N, 11.3000°E)
Time: 08:11:57
(UTC+00:00)

STARLINK-1312 - Pass Details

Date: 08 October 2020
Orbit: 549 x 550 km, 53.0° (Epoch: 23 October)

Event Time Altitude Azimuth Distance (km) Brightness Sun altitude
Exits shadow 03:37:20 48° 293° (WNW) 726 3.8 -19.5°
Maximum altitude 03:38:01 54° 331° (NNW) 668 3.8 -19.3°
Drops below altitude 10° 03:42:06 10° 50° (NE) 1,825 7.1 -18.6°
Sets 03:44:22 0° 55° (NE) 2,721 8.3 -18.2°
